#timestamp,LO_Frequency,Hit 
1504011615.9,286046997.6,N
1504011635.7,286046998.0,N
1504011655.5,286046995.3,P
1504011675.4,286046998.6,N
1504011695.2,286046999.0,N
1504011715.0,286046998.8,N
1504011715.9,286046998.8,N
1504011735.8,286046999.4,N
1504011755.6,286046999.4,N
1504011775.4,286046999.5,N
1504011795.3,286046998.7,N
1504011815.1,286046996.6,N
1504011816.0,286046996.6,N
1504011835.8,286046997.1,N
1504011855.7,286046996.5,N
1504011875.5,286046998.4,N
1504011895.3,286047000.7,N
1504011915.2,286046998.8,N
1504011935.9,286046998.5,N
1504011955.7,286046999.6,N
1504011975.5,286046999.1,N
1504011995.4,286046996.7,N
1504012015.2,286046998.9,N
1504012035.0,286046996.8,N
1504012035.9,286046996.8,N
1504012055.8,286046999.3,N
1504012075.6,286046998.8,N
1504012095.4,286046999.4,N
1504012115.3,286046999.4,N
1504012135.1,286046998.4,N
1504012136.0,286046998.4,N
1504012155.8,286046996.5,N
1504012175.7,286046999.4,N
1504012195.5,286046998.4,N
1504012215.3,286046998.7,N
1504012235.2,286047000.1,N
1504012255.9,286047000.4,N
1504012275.7,286046998.3,N
1504012295.5,286046999.3,N
1504012315.4,286046998.4,N
1504012335.2,286046998.8,N
1504012355.0,286046999.5,N
1504012355.9,286046999.5,N
1504012375.8,286046999.0,N
1504012395.6,286046998.4,N
1504012415.4,286046998.7,N
1504012435.3,286046998.3,N
1504012455.1,286047000.7,N
1504012475.8,286046998.3,N
1504012495.7,286046996.6,P
1504012515.5,286046999.9,N
1504012535.3,286047001.0,N
1504012555.2,286047002.5,N
1504012575.9,286047002.8,N
1504012595.7,286047001.2,N
1504012615.6,286046998.1,N
1504012635.4,286047001.2,N
1504012655.2,286046998.1,N
1504012675.1,286046999.2,N
1504012676.0,286046999.2,N
1504012695.8,286046997.4,N
1504012715.6,286046996.7,N
1504012735.4,286046997.2,N
1504012755.3,286046997.9,N
1504012775.1,286046995.7,N
1504012795.9,286046993.4,P
1504012815.7,286046995.9,N
1504012835.5,286046993.7,N
1504012855.3,286046994.6,N
1504012875.2,286046995.8,N
1504012895.9,286046993.9,P
1504012915.7,286046998.8,N
1504012935.6,286046998.6,N
1504012955.4,286046999.6,N
1504012975.2,286046998.8,N
1504012995.1,286046999.6,N
1504012996.0,286046999.6,N
1504013015.8,286046996.8,N
1504013035.6,286046997.8,N
1504013055.5,286046995.6,N
1504013075.3,286046993.4,P
1504013095.1,286046997.6,N
1504013115.9,286046994.9,N
1504013135.7,286046997.9,N
1504013155.5,286046995.3,N
1504013175.4,286046995.3,N
1504013195.2,286046997.8,N
1504013215.0,286046997.6,N
1504013215.9,286046997.6,N
1504013235.8,286046997.5,N
1504013255.6,286046995.4,P
1504013275.4,286047000.9,N
1504013295.3,286046998.6,N
1504013315.1,286046999.3,N
1504013316.0,286046999.3,N
1504013335.8,286047000.9,N
1504013355.7,286047001.1,N
1504013375.5,286046999.9,N
1504013395.3,286047000.2,N
1504013415.2,286047000.9,N
1504013435.9,286047000.2,N
1504013455.7,286047002.4,N
1504013475.6,286047002.2,N
1504013495.4,286047002.4,N
1504013515.2,286047002.6,N
1504013535.1,286046999.8,N
1504013536.0,286046999.8,N
1504013555.8,286047002.7,N
1504013575.6,286047000.0,N
1504013595.4,286047000.1,N
1504013615.3,286047000.1,N
1504013635.1,286046998.5,N
1504013655.8,286047000.6,N
1504013675.7,286047000.3,N
1504013695.5,286046998.3,N
1504013715.3,286047001.1,N
1504013735.2,286046999.0,N
1504013755.9,286046998.3,N
1504013775.7,286046998.8,N
1504013795.6,286046996.9,N
1504013815.4,286046999.2,N
1504013835.2,286047001.2,N
1504013855.0,286046998.5,N
1504013856.0,286046998.5,N
1504013875.8,286047000.4,N
1504013895.6,286046999.6,N
1504013915.4,286046999.2,N
1504013935.3,286046998.6,N
1504013955.1,286046998.5,N
1504013975.8,286047000.4,N
1504013995.7,286047001.0,N
1504014015.5,286047001.1,N
1504014035.3,286046999.8,N
1504014055.2,286047000.6,N
1504014075.9,286046998.2,N
1504014095.7,286046998.3,N
1504014115.6,286046999.4,N
1504014135.4,286046999.1,N
1504014155.2,286046997.2,N
1504014175.1,286046995.3,P
1504014176.0,286046995.3,N
1504014195.8,286046997.6,N
1504014215.6,286046997.5,N
1504014235.5,286046996.2,N
1504014255.3,286046995.1,P
1504014275.1,286046999.2,N
1504014295.9,286046996.7,N
1504014315.7,286046997.2,N
1504014335.5,286046996.6,N
1504014355.3,286046997.0,N
1504014375.2,286046998.7,N
1504014395.0,286046996.9,N
1504014395.9,286046996.9,N
1504014415.7,286046998.4,N
1504014435.6,286046998.5,N
1504014455.4,286046999.0,N
1504014475.2,286046996.6,N
1504014495.1,286046998.7,N
1504014496.0,286046998.7,N
1504014515.8,286046999.4,N
1504014535.6,286046997.7,N
1504014555.5,286046999.4,N
1504014575.3,286046996.5,N
1504014595.1,286046996.9,N
1504014615.9,286046997.9,N
1504014635.7,286046997.4,N
1504014655.5,286046996.8,N
1504014675.3,286046996.7,N
1504014695.2,286046995.3,P
1504014715.0,286046998.2,N
1504014715.9,286046998.2,N
1504014735.8,286046998.7,N
1504014755.6,286046999.9,N
1504014775.4,286047002.1,N
1504014795.2,286047000.3,N
1504014815.1,286047002.7,N
1504014816.0,286047002.7,N
1504014835.8,286046999.8,N
1504014855.6,286046998.4,N
1504014875.5,286046999.1,N
1504014895.3,286046996.8,N
1504014915.1,286046997.0,N
1504014935.9,286046997.8,N
1504014955.7,286046995.3,N
1504014975.5,286046996.1,N
1504014995.4,286046996.4,N
1504015015.2,286046994.0,N
1504015035.0,286046993.8,N
1504015035.9,286046993.8,N
1504015055.8,286046992.2,P
1504015075.6,286046993.5,N
1504015095.4,286046993.8,N
1504015115.3,286046994.4,N
1504015135.1,286046992.0,P
1504015136.0,286046992.0,P
1504015155.8,286046999.6,N
1504015175.7,286046998.9,N
1504015195.5,286046996.5,N
